Time,TemperatureF,DewpointF,PressureIn,WindDirection,WindDirectionDegrees,WindSpeedMPH,WindSpeedGustMPH,Humidity,HourlyPrecipIn,Conditions,Clouds,dailyrainin,SoftwareType,DateUTC
2013-01-30 00:00:00,69.7,65.3,30.06,ESE,113,2.0,2.0,86,0.00,,,0.00,VWS V14.00,2013-01-30 05:00:00,
2013-01-30 00:01:00,69.6,65.2,30.06,ESE,113,1.0,2.0,86,0.00,,,0.00,VWS V14.00,2013-01-30 05:01:00,
2013-01-30 00:03:00,69.6,65.2,30.06,ESE,113,0.0,2.0,86,0.00,,,0.00,VWS V14.00,2013-01-30 05:03:00,
2013-01-30 00:08:00,69.4,65.0,30.06,ESE,115,4.0,5.0,86,0.00,,,0.00,VWS V14.00,2013-01-30 05:08:00,
2013-01-30 00:13:00,69.3,65.3,30.06,ESE,121,4.0,6.0,87,0.00,,,0.00,VWS V14.00,2013-01-30 05:13:00,
2013-01-30 00:18:00,69.2,65.2,30.06,ESE,106,2.0,2.0,87,0.00,,,0.00,VWS V14.00,2013-01-30 05:18:00,
2013-01-30 00:23:00,69.1,65.1,30.06,ESE,105,2.0,4.0,87,0.00,,,0.00,VWS V14.00,2013-01-30 05:23:00,
2013-01-30 00:28:00,69.0,65.0,30.06,ESE,106,0.0,4.0,87,0.00,,,0.00,VWS V14.00,2013-01-30 05:28:00,
2013-01-30 00:33:00,68.9,65.2,30.06,ESE,106,0.0,2.0,88,0.00,,,0.00,VWS V14.00,2013-01-30 05:33:00,
2013-01-30 00:38:00,68.9,65.2,30.06,ESE,106,1.0,4.0,88,0.00,,,0.00,VWS V14.00,2013-01-30 05:38:00,
2013-01-30 00:43:00,68.8,65.1,30.06,ESE,106,0.0,4.0,88,0.00,,,0.00,VWS V14.00,2013-01-30 05:43:00,
2013-01-30 00:48:00,68.7,65.0,30.06,ESE,108,0.0,5.0,88,0.00,,,0.00,VWS V14.00,2013-01-30 05:48:00,
2013-01-30 00:53:00,68.6,64.9,30.06,ESE,108,5.0,5.0,88,0.00,,,0.00,VWS V14.00,2013-01-30 05:53:00,
2013-01-30 00:58:00,68.6,64.9,30.06,ESE,117,4.0,5.0,88,0.00,,,0.00,VWS V14.00,2013-01-30 05:58:00,
2013-01-30 01:03:00,68.5,64.8,30.06,ESE,118,0.0,4.0,88,0.00,,,0.00,VWS V14.00,2013-01-30 06:03:00,
2013-01-30 01:08:00,68.4,65.0,30.06,ESE,119,0.0,5.0,89,0.00,,,0.00,VWS V14.00,2013-01-30 06:08:00,
2013-01-30 01:13:00,68.4,65.0,30.06,ESE,119,2.0,5.0,89,0.00,,,0.00,VWS V14.00,2013-01-30 06:13:00,
2013-01-30 01:18:00,68.2,64.8,30.05,ESE,119,0.0,4.0,89,0.00,,,0.00,VWS V14.00,2013-01-30 06:18:00,
2013-01-30 01:23:00,68.1,64.7,30.06,ESE,119,0.0,4.0,89,0.00,,,0.00,VWS V14.00,2013-01-30 06:23:00,
2013-01-30 01:28:00,68.1,64.7,30.05,ESE,118,2.0,4.0,89,0.00,,,0.00,VWS V14.00,2013-01-30 06:28:00,
2013-01-30 01:33:00,68.0,64.6,30.05,ESE,118,0.0,2.0,89,0.00,,,0.00,VWS V14.00,2013-01-30 06:33:00,
2013-01-30 01:38:00,68.0,64.6,30.06,ESE,110,0.0,5.0,89,0.00,,,0.00,VWS V14.00,2013-01-30 06:38:00,
2013-01-30 01:43:00,67.9,64.5,30.05,ESE,111,0.0,5.0,89,0.00,,,0.00,VWS V14.00,2013-01-30 06:43:00,
2013-01-30 01:48:00,67.9,64.5,30.05,ESE,111,1.0,4.0,89,0.00,,,0.00,VWS V14.00,2013-01-30 06:48:00,
2013-01-30 01:53:00,67.8,64.8,30.06,ESE,112,0.0,5.0,90,0.00,,,0.00,VWS V14.00,2013-01-30 06:53:00,
2013-01-30 01:58:00,67.7,64.7,30.05,ESE,112,0.0,5.0,90,0.00,,,0.00,VWS V14.00,2013-01-30 06:58:00,
2013-01-30 02:03:00,67.7,64.7,30.05,ESE,112,0.0,4.0,90,0.00,,,0.00,VWS V14.00,2013-01-30 07:03:00,
2013-01-30 02:08:00,67.6,64.6,30.05,ESE,112,0.0,5.0,90,0.00,,,0.00,VWS V14.00,2013-01-30 07:08:00,
2013-01-30 02:13:00,67.6,64.6,30.05,ESE,112,2.0,5.0,90,0.00,,,0.00,VWS V14.00,2013-01-30 07:13:00,
2013-01-30 02:18:00,67.5,64.5,30.05,ESE,106,0.0,5.0,90,0.00,,,0.00,VWS V14.00,2013-01-30 07:18:00,
2013-01-30 02:23:00,67.4,64.4,30.05,ESE,106,0.0,5.0,90,0.00,,,0.00,VWS V14.00,2013-01-30 07:23:00,
2013-01-30 02:28:00,67.3,64.3,30.05,ESE,107,2.0,5.0,90,0.00,,,0.00,VWS V14.00,2013-01-30 07:28:00,
2013-01-30 02:33:00,67.2,64.2,30.05,ESE,107,0.0,4.0,90,0.00,,,0.00,VWS V14.00,2013-01-30 07:33:00,
2013-01-30 02:38:00,67.1,64.1,30.05,ESE,107,0.0,4.0,90,0.00,,,0.00,VWS V14.00,2013-01-30 07:38:00,
2013-01-30 02:43:00,67.0,64.0,30.04,ESE,107,0.0,4.0,90,0.00,,,0.00,VWS V14.00,2013-01-30 07:43:00,
2013-01-30 02:48:00,66.9,63.9,30.04,ESE,107,1.0,4.0,90,0.00,,,0.00,VWS V14.00,2013-01-30 07:48:00,
2013-01-30 02:53:00,66.9,63.9,30.04,ESE,107,0.0,4.0,90,0.00,,,0.00,VWS V14.00,2013-01-30 07:53:00,
2013-01-30 02:58:00,66.8,63.8,30.04,ESE,107,0.0,4.0,90,0.00,,,0.00,VWS V14.00,2013-01-30 07:58:00,
2013-01-30 03:03:00,66.7,64.0,30.03,ESE,107,0.0,4.0,91,0.00,,,0.00,VWS V14.00,2013-01-30 08:03:00,
2013-01-30 03:08:00,66.7,64.0,30.03,ESE,107,0.0,4.0,91,0.00,,,0.00,VWS V14.00,2013-01-30 08:08:00,
2013-01-30 03:13:00,66.7,64.0,30.04,ESE,114,2.0,5.0,91,0.00,,,0.00,VWS V14.00,2013-01-30 08:13:00,
2013-01-30 03:18:00,66.7,64.0,30.04,ESE,114,0.0,1.0,91,0.00,,,0.00,VWS V14.00,2013-01-30 08:18:00,
2013-01-30 03:23:00,66.7,64.0,30.04,ESE,114,0.0,2.0,91,0.00,,,0.00,VWS V14.00,2013-01-30 08:23:00,
2013-01-30 03:28:00,66.7,64.0,30.03,ESE,114,0.0,2.0,91,0.00,,,0.00,VWS V14.00,2013-01-30 08:28:00,
2013-01-30 03:33:00,66.6,63.9,30.03,ESE,114,0.0,4.0,91,0.00,,,0.00,VWS V14.00,2013-01-30 08:33:00,
2013-01-30 03:38:00,66.6,63.9,30.03,ESE,114,0.0,4.0,91,0.00,,,0.00,VWS V14.00,2013-01-30 08:38:00,
2013-01-30 03:43:00,66.5,63.8,30.03,ESE,114,2.0,4.0,91,0.00,,,0.00,VWS V14.00,2013-01-30 08:43:00,
2013-01-30 03:48:00,66.4,63.7,30.03,ESE,114,1.0,1.0,91,0.00,,,0.00,VWS V14.00,2013-01-30 08:48:00,
2013-01-30 03:53:00,66.5,63.8,30.02,ESE,120,0.0,6.0,91,0.00,,,0.00,VWS V14.00,2013-01-30 08:53:00,
2013-01-30 03:58:00,66.4,63.7,30.02,ESE,120,1.0,6.0,91,0.00,,,0.00,VWS V14.00,2013-01-30 08:58:00,
2013-01-30 04:03:00,66.4,63.7,30.02,ESE,120,0.0,1.0,91,0.00,,,0.00,VWS V14.00,2013-01-30 09:03:00,
2013-01-30 04:08:00,66.3,63.6,30.02,ESE,120,0.0,4.0,91,0.00,,,0.00,VWS V14.00,2013-01-30 09:08:00,
2013-01-30 04:13:00,66.3,63.6,30.02,ESE,119,1.0,4.0,91,0.00,,,0.00,VWS V14.00,2013-01-30 09:13:00,
2013-01-30 04:18:00,66.2,63.8,30.02,ESE,120,2.0,4.0,92,0.00,,,0.00,VWS V14.00,2013-01-30 09:18:00,
2013-01-30 04:22:00,66.1,63.4,30.02,ESE,121,1.0,6.0,91,0.00,,,0.00,VWS V14.00,2013-01-30 09:22:00,
2013-01-30 04:27:00,66.0,63.3,30.01,ESE,113,0.0,6.0,91,0.00,,,0.00,VWS V14.00,2013-01-30 09:27:00,
2013-01-30 04:32:00,66.0,63.3,30.01,ESE,113,1.0,5.0,91,0.00,,,0.00,VWS V14.00,2013-01-30 09:32:00,
2013-01-30 04:37:00,66.0,63.3,30.01,East,88,3.0,5.0,91,0.00,,,0.00,VWS V14.00,2013-01-30 09:37:00,
2013-01-30 04:42:00,66.0,63.3,30.01,ESE,109,0.0,7.0,91,0.00,,,0.00,VWS V14.00,2013-01-30 09:42:00,
2013-01-30 04:47:00,66.1,63.4,30.01,ESE,111,2.0,6.0,91,0.00,,,0.00,VWS V14.00,2013-01-30 09:47:00,
2013-01-30 04:52:00,66.2,63.5,30.01,ESE,109,2.0,7.0,91,0.00,,,0.00,VWS V14.00,2013-01-30 09:52:00,
2013-01-30 04:57:00,66.4,63.7,30.01,ESE,114,4.0,8.0,91,0.00,,,0.00,VWS V14.00,2013-01-30 09:57:00,
2013-01-30 05:02:00,66.5,63.8,30.01,ESE,105,0.0,6.0,91,0.00,,,0.00,VWS V14.00,2013-01-30 10:02:00,
2013-01-30 05:07:00,66.5,63.8,30.01,SE,127,6.0,6.0,91,0.00,,,0.00,VWS V14.00,2013-01-30 10:07:00,
2013-01-30 05:12:00,66.5,63.8,30.01,ESE,123,2.0,6.0,91,0.00,,,0.00,VWS V14.00,2013-01-30 10:12:00,
2013-01-30 05:17:00,66.5,63.8,30.01,ESE,122,5.0,5.0,91,0.00,,,0.00,VWS V14.00,2013-01-30 10:17:00,
2013-01-30 05:22:00,66.4,63.7,30.01,ESE,121,0.0,6.0,91,0.00,,,0.00,VWS V14.00,2013-01-30 10:22:00,
2013-01-30 05:27:00,66.4,63.7,30.02,ESE,121,2.0,6.0,91,0.00,,,0.00,VWS V14.00,2013-01-30 10:27:00,
2013-01-30 05:32:00,66.4,63.7,30.02,SE,128,5.0,5.0,91,0.00,,,0.00,VWS V14.00,2013-01-30 10:32:00,
2013-01-30 05:37:00,66.4,63.7,30.01,SSE,150,2.0,6.0,91,0.00,,,0.00,VWS V14.00,2013-01-30 10:37:00,
2013-01-30 05:42:00,66.4,63.7,30.02,SSE,150,1.0,6.0,91,0.00,,,0.00,VWS V14.00,2013-01-30 10:42:00,
2013-01-30 05:47:00,66.4,63.7,30.01,SSE,150,0.0,4.0,91,0.00,,,0.00,VWS V14.00,2013-01-30 10:47:00,
2013-01-30 05:52:00,66.3,63.6,30.01,SSE,150,0.0,4.0,91,0.00,,,0.00,VWS V14.00,2013-01-30 10:52:00,
2013-01-30 05:57:00,66.3,63.6,30.02,SSE,150,0.0,4.0,91,0.00,,,0.00,VWS V14.00,2013-01-30 10:57:00,
2013-01-30 06:02:00,66.2,63.5,30.01,SSE,150,4.0,5.0,91,0.00,,,0.00,VWS V14.00,2013-01-30 11:02:00,
2013-01-30 06:07:00,66.2,63.8,30.01,SE,146,2.0,5.0,92,0.00,,,0.00,VWS V14.00,2013-01-30 11:07:00,
2013-01-30 06:12:00,66.2,63.8,30.01,SE,146,2.0,5.0,92,0.00,,,0.00,VWS V14.00,2013-01-30 11:12:00,
2013-01-30 06:17:00,66.2,63.8,30.01,SE,146,2.0,2.0,92,0.00,,,0.00,VWS V14.00,2013-01-30 11:17:00,
2013-01-30 06:22:00,66.2,63.8,30.02,SE,146,2.0,2.0,92,0.00,,,0.00,VWS V14.00,2013-01-30 11:22:00,
2013-01-30 06:27:00,66.2,63.8,30.02,SE,146,2.0,2.0,92,0.00,,,0.00,VWS V14.00,2013-01-30 11:27:00,
2013-01-30 06:32:00,66.2,63.8,30.02,SE,146,2.0,2.0,92,0.00,,,0.00,VWS V14.00,2013-01-30 11:32:00,
2013-01-30 06:37:00,66.2,63.8,30.02,SE,146,2.0,2.0,92,0.00,,,0.00,VWS V14.00,2013-01-30 11:37:00,
2013-01-30 06:42:00,66.2,63.8,30.02,SE,146,2.0,2.0,92,0.00,,,0.00,VWS V14.00,2013-01-30 11:42:00,
2013-01-30 06:47:00,66.2,63.8,30.02,SE,146,2.0,2.0,92,0.00,,,0.00,VWS V14.00,2013-01-30 11:47:00,
2013-01-30 06:52:00,66.2,63.8,30.02,SE,146,2.0,2.0,92,0.00,,,0.00,VWS V14.00,2013-01-30 11:52:00,
2013-01-30 06:57:00,66.2,63.8,30.02,SE,146,2.0,2.0,92,0.00,,,0.00,VWS V14.00,2013-01-30 11:57:00,
2013-01-30 07:02:00,66.2,63.8,30.03,SE,146,2.0,2.0,92,0.00,,,0.00,VWS V14.00,2013-01-30 12:02:00,
2013-01-30 07:07:00,66.2,63.8,30.02,SE,146,2.0,2.0,92,0.00,,,0.00,VWS V14.00,2013-01-30 12:07:00,
2013-01-30 07:12:00,66.2,63.8,30.02,SE,146,2.0,2.0,92,0.00,,,0.00,VWS V14.00,2013-01-30 12:12:00,
2013-01-30 07:17:00,66.2,63.8,30.02,SE,146,2.0,2.0,92,0.00,,,0.00,VWS V14.00,2013-01-30 12:17:00,
2013-01-30 07:22:00,66.2,63.8,30.02,SE,146,2.0,2.0,92,0.00,,,0.00,VWS V14.00,2013-01-30 12:22:00,
2013-01-30 07:27:00,66.2,63.8,30.02,SE,146,2.0,2.0,92,0.00,,,0.00,VWS V14.00,2013-01-30 12:27:00,
2013-01-30 07:32:00,66.2,63.8,30.02,SE,146,2.0,2.0,92,0.00,,,0.00,VWS V14.00,2013-01-30 12:32:00,
2013-01-30 07:37:00,66.2,63.8,30.02,SE,146,2.0,2.0,92,0.00,,,0.00,VWS V14.00,2013-01-30 12:37:00,
2013-01-30 07:42:00,66.2,63.8,30.02,SE,146,2.0,2.0,92,0.00,,,0.00,VWS V14.00,2013-01-30 12:42:00,
2013-01-30 07:47:00,66.2,63.8,30.02,SE,146,2.0,2.0,92,0.00,,,0.00,VWS V14.00,2013-01-30 12:47:00,
2013-01-30 07:52:00,66.2,63.8,30.02,SE,146,2.0,2.0,92,0.00,,,0.00,VWS V14.00,2013-01-30 12:52:00,
2013-01-30 07:57:00,66.2,63.8,30.02,SE,146,2.0,2.0,92,0.00,,,0.00,VWS V14.00,2013-01-30 12:57:00,
2013-01-30 08:02:00,66.2,63.8,30.02,SE,146,2.0,2.0,92,0.00,,,0.00,VWS V14.00,2013-01-30 13:02:00,
2013-01-30 08:07:00,66.2,63.8,30.02,SE,146,2.0,2.0,92,0.00,,,0.00,VWS V14.00,2013-01-30 13:07:00,
2013-01-30 08:12:00,66.2,63.8,30.02,SE,146,2.0,2.0,92,0.00,,,0.00,VWS V14.00,2013-01-30 13:12:00,
2013-01-30 08:17:00,66.2,63.8,30.02,SE,146,2.0,2.0,92,0.00,,,0.00,VWS V14.00,2013-01-30 13:17:00,
2013-01-30 08:22:00,66.2,63.8,30.03,SE,146,2.0,2.0,92,0.00,,,0.00,VWS V14.00,2013-01-30 13:22:00,
2013-01-30 08:27:00,66.2,63.8,30.03,SE,146,2.0,2.0,92,0.00,,,0.00,VWS V14.00,2013-01-30 13:27:00,
2013-01-30 08:32:00,66.2,63.8,30.03,SE,146,2.0,2.0,92,0.00,,,0.00,VWS V14.00,2013-01-30 13:32:00,
2013-01-30 08:37:00,66.2,63.8,30.03,SE,146,2.0,2.0,92,0.00,,,0.00,VWS V14.00,2013-01-30 13:37:00,
2013-01-30 08:42:00,66.2,63.8,30.02,SE,146,2.0,2.0,92,0.00,,,0.00,VWS V14.00,2013-01-30 13:42:00,
2013-01-30 08:47:00,66.2,63.8,30.02,SE,146,2.0,2.0,92,0.00,,,0.00,VWS V14.00,2013-01-30 13:47:00,
2013-01-30 08:52:00,70.3,66.2,30.02,ESE,117,2.0,9.0,87,0.00,,,0.00,VWS V14.00,2013-01-30 13:52:00,
2013-01-30 08:57:00,70.7,66.3,30.02,SE,124,2.0,9.0,86,0.00,,,0.00,VWS V14.00,2013-01-30 13:57:00,
2013-01-30 09:02:00,71.1,66.4,30.01,SSE,152,4.0,9.0,85,0.00,,,0.00,VWS V14.00,2013-01-30 14:02:00,
2013-01-30 09:07:00,71.6,66.9,30.01,SSE,158,4.0,9.0,85,0.00,,,0.00,VWS V14.00,2013-01-30 14:07:00,
2013-01-30 09:12:00,72.1,66.7,30.02,South,171,8.0,11.0,83,0.00,,,0.00,VWS V14.00,2013-01-30 14:12:00,
2013-01-30 09:17:00,72.4,66.9,30.02,SSE,166,6.0,11.0,83,0.00,,,0.00,VWS V14.00,2013-01-30 14:17:00,
2013-01-30 09:22:00,72.8,67.0,30.01,SE,133,11.0,11.0,82,0.00,,,0.00,VWS V14.00,2013-01-30 14:22:00,
2013-01-30 09:27:00,73.2,67.0,30.01,SSE,149,9.0,11.0,81,0.00,,,0.00,VWS V14.00,2013-01-30 14:27:00,
2013-01-30 09:32:00,73.5,67.0,30.02,SE,146,5.0,11.0,80,0.00,,,0.00,VWS V14.00,2013-01-30 14:32:00,
2013-01-30 09:37:00,73.9,67.0,30.02,SSE,160,10.0,14.0,79,0.00,,,0.00,VWS V14.00,2013-01-30 14:37:00,
2013-01-30 09:42:00,74.0,67.1,30.01,South,171,4.0,14.0,79,0.00,,,0.00,VWS V14.00,2013-01-30 14:42:00,
2013-01-30 09:47:00,74.4,67.1,30.02,South,173,7.0,11.0,78,0.00,,,0.00,VWS V14.00,2013-01-30 14:47:00,
2013-01-30 09:52:00,74.6,66.9,30.02,SE,144,7.0,14.0,77,0.00,,,0.00,VWS V14.00,2013-01-30 14:52:00,
2013-01-30 09:57:00,74.9,66.8,30.02,ESE,110,4.0,15.0,76,0.00,,,0.00,VWS V14.00,2013-01-30 14:57:00,
2013-01-30 10:02:00,75.1,67.0,30.01,South,179,5.0,14.0,76,0.00,,,0.00,VWS V14.00,2013-01-30 15:02:00,
2013-01-30 10:07:00,75.4,67.3,30.01,SSE,159,4.0,14.0,76,0.00,,,0.00,VWS V14.00,2013-01-30 15:07:00,
2013-01-30 10:12:00,75.6,67.5,30.01,SE,126,5.0,14.0,76,0.00,,,0.00,VWS V14.00,2013-01-30 15:12:00,
2013-01-30 10:17:00,75.9,67.4,30.00,SSW,195,6.0,14.0,75,0.00,,,0.00,VWS V14.00,2013-01-30 15:17:00,
2013-01-30 10:22:00,76.2,67.7,30.00,South,185,11.0,14.0,75,0.00,,,0.00,VWS V14.00,2013-01-30 15:22:00,
2013-01-30 10:27:00,76.6,67.7,30.00,South,180,3.0,14.0,74,0.00,,,0.00,VWS V14.00,2013-01-30 15:27:00,
2013-01-30 10:32:00,76.8,67.5,30.00,South,169,5.0,13.0,73,0.00,,,0.00,VWS V14.00,2013-01-30 15:32:00,
2013-01-30 10:37:00,76.8,67.5,30.00,SSE,156,7.0,13.0,73,0.00,,,0.00,VWS V14.00,2013-01-30 15:37:00,
2013-01-30 10:42:00,76.8,67.1,29.99,SSE,162,12.0,19.0,72,0.00,,,0.00,VWS V14.00,2013-01-30 15:42:00,
2013-01-30 10:47:00,76.8,67.1,29.99,SSE,148,7.0,16.0,72,0.00,,,0.00,VWS V14.00,2013-01-30 15:47:00,
2013-01-30 10:52:00,77.1,67.4,29.99,South,186,13.0,20.0,72,0.00,,,0.00,VWS V14.00,2013-01-30 15:52:00,
2013-01-30 10:57:00,77.4,67.3,29.99,ESE,113,12.0,20.0,71,0.00,,,0.00,VWS V14.00,2013-01-30 15:57:00,
2013-01-30 11:02:00,77.6,67.5,29.99,SSE,162,6.0,15.0,71,0.00,,,0.00,VWS V14.00,2013-01-30 16:02:00,
2013-01-30 11:07:00,77.5,67.8,29.98,SSW,192,5.0,20.0,72,0.00,,,0.00,VWS V14.00,2013-01-30 16:07:00,
2013-01-30 11:12:00,77.8,67.7,29.98,South,189,13.0,20.0,71,0.00,,,0.00,VWS V14.00,2013-01-30 16:12:00,
2013-01-30 11:17:00,78.0,67.4,29.97,SSE,157,10.0,15.0,70,0.00,,,0.00,VWS V14.00,2013-01-30 16:17:00,
2013-01-30 11:22:00,78.4,67.4,29.97,SSE,153,17.0,17.0,69,0.00,,,0.00,VWS V14.00,2013-01-30 16:22:00,
2013-01-30 11:27:00,78.5,67.5,29.97,SSE,165,9.0,17.0,69,0.00,,,0.00,VWS V14.00,2013-01-30 16:27:00,
2013-01-30 11:32:00,78.7,67.7,29.96,SSE,155,8.0,14.0,69,0.00,,,0.00,VWS V14.00,2013-01-30 16:32:00,
2013-01-30 11:37:00,78.6,67.6,29.96,SSE,147,7.0,20.0,69,0.00,,,0.00,VWS V14.00,2013-01-30 16:37:00,
2013-01-30 11:42:00,78.8,67.8,29.96,SE,140,13.0,20.0,69,0.00,,,0.00,VWS V14.00,2013-01-30 16:42:00,
2013-01-30 11:47:00,79.3,67.4,29.96,South,181,3.0,13.0,67,0.00,,,0.00,VWS V14.00,2013-01-30 16:47:00,
2013-01-30 11:52:00,79.5,67.2,29.95,South,175,5.0,14.0,66,0.00,,,0.00,VWS V14.00,2013-01-30 16:52:00,
2013-01-30 11:57:00,79.5,66.7,29.95,South,173,5.0,15.0,65,0.00,,,0.00,VWS V14.00,2013-01-30 16:57:00,
2013-01-30 12:02:00,79.6,67.2,29.95,SSW,205,9.0,15.0,66,0.00,,,0.00,VWS V14.00,2013-01-30 17:02:00,
2013-01-30 12:07:00,79.7,66.9,29.95,SSW,192,6.0,15.0,65,0.00,,,0.00,VWS V14.00,2013-01-30 17:07:00,
2013-01-30 12:12:00,79.4,67.1,29.95,South,182,5.0,15.0,66,0.00,,,0.00,VWS V14.00,2013-01-30 17:12:00,
2013-01-30 12:17:00,79.6,67.2,29.94,SSE,163,8.0,12.0,66,0.00,,,0.00,VWS V14.00,2013-01-30 17:17:00,
2013-01-30 12:22:00,79.8,66.6,29.94,SE,137,7.0,16.0,64,0.00,,,0.00,VWS V14.00,2013-01-30 17:22:00,
2013-01-30 12:27:00,79.8,66.6,29.94,SE,145,13.0,16.0,64,0.00,,,0.00,VWS V14.00,2013-01-30 17:27:00,
2013-01-30 12:32:00,79.7,66.9,29.94,South,184,3.0,11.0,65,0.00,,,0.00,VWS V14.00,2013-01-30 17:32:00,
2013-01-30 12:37:00,79.6,67.2,29.94,SSE,147,9.0,11.0,66,0.00,,,0.00,VWS V14.00,2013-01-30 17:37:00,
2013-01-30 12:42:00,79.6,66.8,29.94,South,176,4.0,11.0,65,0.00,,,0.00,VWS V14.00,2013-01-30 17:42:00,
2013-01-30 12:47:00,79.8,66.1,29.93,SE,131,12.0,16.0,63,0.00,,,0.00,VWS V14.00,2013-01-30 17:47:00,
2013-01-30 12:52:00,79.8,66.1,29.93,SSE,154,5.0,16.0,63,0.00,,,0.00,VWS V14.00,2013-01-30 17:52:00,
2013-01-30 12:57:00,79.9,66.7,29.93,SSW,202,16.0,17.0,64,0.00,,,0.00,VWS V14.00,2013-01-30 17:57:00,
2013-01-30 13:02:00,79.9,66.7,29.93,SSE,166,10.0,13.0,64,0.00,,,0.00,VWS V14.00,2013-01-30 18:02:00,
2013-01-30 13:07:00,80.1,67.3,29.93,SSW,196,1.0,13.0,65,0.00,,,0.00,VWS V14.00,2013-01-30 18:07:00,
2013-01-30 13:12:00,81.1,66.9,29.93,SSW,196,9.0,14.0,62,0.00,,,0.00,VWS V14.00,2013-01-30 18:12:00,
2013-01-30 13:17:00,81.5,67.2,29.93,SSW,194,6.0,12.0,62,0.00,,,0.00,VWS V14.00,2013-01-30 18:17:00,
2013-01-30 13:22:00,81.6,67.3,29.93,South,177,6.0,12.0,62,0.00,,,0.00,VWS V14.00,2013-01-30 18:22:00,
2013-01-30 13:27:00,81.2,66.0,29.93,SSE,159,4.0,12.0,60,0.00,,,0.00,VWS V14.00,2013-01-30 18:27:00,
2013-01-30 13:32:00,81.2,66.5,29.93,South,191,8.0,10.0,61,0.00,,,0.00,VWS V14.00,2013-01-30 18:32:00,
2013-01-30 13:37:00,81.4,65.7,29.93,SSW,200,2.0,17.0,59,0.00,,,0.00,VWS V14.00,2013-01-30 18:37:00,
2013-01-30 13:42:00,81.6,65.4,29.93,SSE,151,9.0,17.0,58,0.00,,,0.00,VWS V14.00,2013-01-30 18:42:00,
2013-01-30 13:47:00,81.7,65.0,29.93,South,191,8.0,17.0,57,0.00,,,0.00,VWS V14.00,2013-01-30 18:47:00,
2013-01-30 13:52:00,81.6,65.4,29.95,South,175,6.0,17.0,58,0.00,,,0.00,VWS V14.00,2013-01-30 18:52:00,
2013-01-30 13:57:00,82.0,64.8,29.94,SW,221,8.0,17.0,56,0.00,,,0.00,VWS V14.00,2013-01-30 18:57:00,
2013-01-30 14:02:00,81.6,63.9,29.94,SSW,201,7.0,16.0,55,0.00,,,0.00,VWS V14.00,2013-01-30 19:02:00,
2013-01-30 14:07:00,81.2,64.0,29.95,WSW,245,6.0,17.0,56,0.00,,,0.00,VWS V14.00,2013-01-30 19:07:00,
2013-01-30 14:12:00,81.0,64.3,29.95,SSW,213,9.0,18.0,57,0.00,,,0.00,VWS V14.00,2013-01-30 19:12:00,
2013-01-30 14:17:00,81.0,64.3,29.95,SW,229,5.0,10.0,57,0.00,,,0.00,VWS V14.00,2013-01-30 19:17:00,
2013-01-30 14:22:00,80.6,64.5,29.96,SSE,168,5.0,17.0,58,0.00,,,0.00,VWS V14.00,2013-01-30 19:22:00,
2013-01-30 14:27:00,80.6,65.0,29.95,SSW,213,7.0,17.0,59,0.00,,,0.00,VWS V14.00,2013-01-30 19:27:00,
2013-01-30 14:32:00,80.6,65.9,29.94,South,171,4.0,12.0,61,0.00,,,0.00,VWS V14.00,2013-01-30 19:32:00,
2013-01-30 14:37:00,80.9,65.7,29.94,SSE,147,12.0,12.0,60,0.00,,,0.00,VWS V14.00,2013-01-30 19:37:00,
2013-01-30 14:42:00,81.1,65.4,29.95,South,191,9.0,13.0,59,0.00,,,0.00,VWS V14.00,2013-01-30 19:42:00,
2013-01-30 14:47:00,80.8,65.2,29.95,SSE,153,7.0,11.0,59,0.00,,,0.00,VWS V14.00,2013-01-30 19:47:00,
2013-01-30 14:52:00,80.7,66.0,29.94,SSW,195,2.0,13.0,61,0.00,,,0.00,VWS V14.00,2013-01-30 19:52:00,
2013-01-30 14:57:00,80.4,66.2,29.94,South,173,7.0,13.0,62,0.00,,,0.00,VWS V14.00,2013-01-30 19:57:00,
2013-01-30 15:02:00,80.2,65.5,29.94,South,183,7.0,15.0,61,0.00,,,0.00,VWS V14.00,2013-01-30 20:02:00,
2013-01-30 15:07:00,80.4,64.8,29.94,SW,219,12.0,18.0,59,0.00,,,0.00,VWS V14.00,2013-01-30 20:07:00,
2013-01-30 15:12:00,80.6,65.0,29.94,SSW,204,16.0,18.0,59,0.00,,,0.00,VWS V14.00,2013-01-30 20:12:00,
2013-01-30 15:17:00,80.6,65.0,29.94,SSW,205,9.0,13.0,59,0.00,,,0.00,VWS V14.00,2013-01-30 20:17:00,
2013-01-30 15:22:00,80.8,65.2,29.94,South,182,5.0,17.0,59,0.00,,,0.00,VWS V14.00,2013-01-30 20:22:00,
2013-01-30 15:27:00,80.4,65.7,29.94,SSE,166,8.0,17.0,61,0.00,,,0.00,VWS V14.00,2013-01-30 20:27:00,
2013-01-30 15:32:00,80.3,65.6,29.94,SE,145,8.0,12.0,61,0.00,,,0.00,VWS V14.00,2013-01-30 20:32:00,
2013-01-30 15:37:00,80.5,65.8,29.93,SE,142,6.0,13.0,61,0.00,,,0.00,VWS V14.00,2013-01-30 20:37:00,
2013-01-30 15:42:00,80.2,65.1,29.94,South,169,9.0,16.0,60,0.00,,,0.00,VWS V14.00,2013-01-30 20:42:00,
2013-01-30 15:47:00,80.0,65.4,29.94,SSE,168,8.0,17.0,61,0.00,,,0.00,VWS V14.00,2013-01-30 20:47:00,
2013-01-30 15:52:00,80.0,65.4,29.94,South,174,6.0,17.0,61,0.00,,,0.00,VWS V14.00,2013-01-30 20:52:00,
2013-01-30 15:57:00,79.9,64.8,29.94,South,178,4.0,17.0,60,0.00,,,0.00,VWS V14.00,2013-01-30 20:57:00,
2013-01-30 16:02:00,80.1,65.0,29.94,South,173,7.0,15.0,60,0.00,,,0.00,VWS V14.00,2013-01-30 21:02:00,
2013-01-30 16:07:00,80.0,65.4,29.93,South,182,10.0,15.0,61,0.00,,,0.00,VWS V14.00,2013-01-30 21:07:00,
2013-01-30 16:12:00,79.7,65.5,29.93,South,171,10.0,15.0,62,0.00,,,0.00,VWS V14.00,2013-01-30 21:12:00,
2013-01-30 16:17:00,79.5,64.9,29.93,SSE,161,7.0,17.0,61,0.00,,,0.00,VWS V14.00,2013-01-30 21:17:00,
2013-01-30 16:22:00,79.4,64.8,29.94,SSE,151,7.0,17.0,61,0.00,,,0.00,VWS V14.00,2013-01-30 21:22:00,
2013-01-30 16:27:00,79.6,65.4,29.93,South,182,5.0,17.0,62,0.00,,,0.00,VWS V14.00,2013-01-30 21:27:00,
2013-01-30 16:32:00,79.4,65.3,29.93,SSE,155,9.0,12.0,62,0.00,,,0.00,VWS V14.00,2013-01-30 21:32:00,
2013-01-30 16:37:00,79.4,65.7,29.93,SSE,156,7.0,12.0,63,0.00,,,0.00,VWS V14.00,2013-01-30 21:37:00,
2013-01-30 16:42:00,79.4,65.7,29.93,South,189,3.0,12.0,63,0.00,,,0.00,VWS V14.00,2013-01-30 21:42:00,
2013-01-30 16:47:00,79.1,65.4,29.93,SSW,196,6.0,18.0,63,0.00,,,0.00,VWS V14.00,2013-01-30 21:47:00,
2013-01-30 16:52:00,78.9,65.7,29.93,SSE,167,7.0,18.0,64,0.00,,,0.00,VWS V14.00,2013-01-30 21:52:00,
2013-01-30 16:57:00,78.8,65.6,29.92,SSW,212,10.0,18.0,64,0.00,,,0.00,VWS V14.00,2013-01-30 21:57:00,
2013-01-30 17:02:00,78.5,65.3,29.93,South,187,3.0,15.0,64,0.00,,,0.00,VWS V14.00,2013-01-30 22:02:00,
2013-01-30 17:07:00,78.2,65.5,29.93,South,184,4.0,15.0,65,0.00,,,0.00,VWS V14.00,2013-01-30 22:07:00,
2013-01-30 17:12:00,77.8,65.5,29.93,South,174,10.0,15.0,66,0.00,,,0.00,VWS V14.00,2013-01-30 22:12:00,
2013-01-30 17:17:00,77.3,65.5,29.93,SSE,161,4.0,11.0,67,0.00,,,0.00,VWS V14.00,2013-01-30 22:17:00,
2013-01-30 17:22:00,77.1,65.7,29.93,SSW,211,5.0,12.0,68,0.00,,,0.00,VWS V14.00,2013-01-30 22:22:00,
2013-01-30 17:27:00,77.2,66.2,29.93,SSW,200,5.0,12.0,69,0.00,,,0.00,VWS V14.00,2013-01-30 22:27:00,
2013-01-30 17:32:00,77.1,65.7,29.93,South,188,7.0,11.0,68,0.00,,,0.00,VWS V14.00,2013-01-30 22:32:00,
2013-01-30 17:37:00,77.0,66.1,29.93,South,191,5.0,11.0,69,0.00,,,0.00,VWS V14.00,2013-01-30 22:37:00,
2013-01-30 17:42:00,76.8,65.9,29.93,South,176,6.0,11.0,69,0.00,,,0.00,VWS V14.00,2013-01-30 22:42:00,
2013-01-30 17:47:00,76.5,66.0,29.93,South,183,1.0,6.0,70,0.00,,,0.00,VWS V14.00,2013-01-30 22:47:00,
2013-01-30 17:52:00,76.3,65.8,29.94,South,184,2.0,6.0,70,0.00,,,0.00,VWS V14.00,2013-01-30 22:52:00,
2013-01-30 17:57:00,76.0,65.9,29.94,South,171,0.0,6.0,71,0.00,,,0.00,VWS V14.00,2013-01-30 22:57:00,
2013-01-30 18:02:00,75.8,65.7,29.94,South,188,3.0,5.0,71,0.00,,,0.00,VWS V14.00,2013-01-30 23:02:00,
2013-01-30 18:07:00,75.5,65.8,29.94,South,184,1.0,5.0,72,0.00,,,0.00,VWS V14.00,2013-01-30 23:07:00,
2013-01-30 18:12:00,75.4,65.8,29.94,South,184,0.0,5.0,72,0.00,,,0.00,VWS V14.00,2013-01-30 23:12:00,
2013-01-30 18:17:00,75.1,65.9,29.94,SSE,167,1.0,5.0,73,0.00,,,0.00,VWS V14.00,2013-01-30 23:17:00,
2013-01-30 18:22:00,74.9,66.1,29.93,SSE,155,5.0,8.0,74,0.00,,,0.00,VWS V14.00,2013-01-30 23:22:00,
2013-01-30 18:27:00,74.8,66.0,29.93,South,171,2.0,8.0,74,0.00,,,0.00,VWS V14.00,2013-01-30 23:27:00,
2013-01-30 18:32:00,74.7,66.3,29.92,SSW,197,1.0,7.0,75,0.00,,,0.00,VWS V14.00,2013-01-30 23:32:00,
2013-01-30 18:37:00,74.5,66.1,29.92,South,180,0.0,7.0,75,0.00,,,0.00,VWS V14.00,2013-01-30 23:37:00,
2013-01-30 18:42:00,74.3,66.2,29.92,SSE,153,0.0,7.0,76,0.00,,,0.00,VWS V14.00,2013-01-30 23:42:00,
2013-01-30 18:47:00,74.1,66.1,29.92,SSE,153,0.0,4.0,76,0.00,,,0.00,VWS V14.00,2013-01-30 23:47:00,
2013-01-30 18:52:00,73.8,65.8,29.92,South,179,4.0,5.0,76,0.00,,,0.00,VWS V14.00,2013-01-30 23:52:00,
2013-01-30 18:57:00,73.6,65.9,29.92,South,169,4.0,6.0,77,0.00,,,0.00,VWS V14.00,2013-01-30 23:57:00,
2013-01-30 19:02:00,73.4,66.1,29.93,South,179,0.0,5.0,78,0.00,,,0.00,VWS V14.00,2013-01-31 00:02:00,
2013-01-30 19:07:00,73.2,65.9,29.92,South,180,0.0,5.0,78,0.00,,,0.00,VWS V14.00,2013-01-31 00:07:00,
2013-01-30 19:12:00,73.0,66.1,29.93,South,181,0.0,5.0,79,0.00,,,0.00,VWS V14.00,2013-01-31 00:12:00,
2013-01-30 19:17:00,72.9,66.0,29.93,South,180,0.0,3.0,79,0.00,,,0.00,VWS V14.00,2013-01-31 00:17:00,
2013-01-30 19:22:00,72.8,66.3,29.93,SSE,166,4.0,4.0,80,0.00,,,0.00,VWS V14.00,2013-01-31 00:22:00,
2013-01-30 19:27:00,72.8,66.3,29.93,SSE,165,0.0,4.0,80,0.00,,,0.00,VWS V14.00,2013-01-31 00:27:00,
2013-01-30 19:32:00,72.6,66.1,29.93,SSE,165,0.0,2.0,80,0.00,,,0.00,VWS V14.00,2013-01-31 00:32:00,
2013-01-30 19:37:00,72.4,65.9,29.93,SSE,165,0.0,2.0,80,0.00,,,0.00,VWS V14.00,2013-01-31 00:37:00,
2013-01-30 19:42:00,72.2,66.1,29.93,SSE,165,0.0,2.0,81,0.00,,,0.00,VWS V14.00,2013-01-31 00:42:00,
2013-01-30 19:47:00,72.0,65.9,29.93,SSE,165,0.0,1.0,81,0.00,,,0.00,VWS V14.00,2013-01-31 00:47:00,
2013-01-30 19:52:00,71.9,66.1,29.93,SSE,165,0.0,4.0,82,0.00,,,0.00,VWS V14.00,2013-01-31 00:52:00,
2013-01-30 19:57:00,71.7,65.9,29.93,SSE,167,0.0,4.0,82,0.00,,,0.00,VWS V14.00,2013-01-31 00:57:00,
2013-01-30 20:02:00,71.6,66.2,29.93,SSE,167,1.0,4.0,83,0.00,,,0.00,VWS V14.00,2013-01-31 01:02:00,
2013-01-30 20:07:00,71.6,66.2,29.93,SSE,167,0.0,5.0,83,0.00,,,0.00,VWS V14.00,2013-01-31 01:07:00,
2013-01-30 20:12:00,71.6,66.2,29.94,SSE,164,1.0,5.0,83,0.00,,,0.00,VWS V14.00,2013-01-31 01:12:00,
2013-01-30 20:17:00,71.5,66.1,29.94,SSE,164,2.0,4.0,83,0.00,,,0.00,VWS V14.00,2013-01-31 01:17:00,
2013-01-30 20:22:00,71.5,66.1,29.94,SSE,164,0.0,5.0,83,0.00,,,0.00,VWS V14.00,2013-01-31 01:22:00,
2013-01-30 20:27:00,71.4,66.3,29.95,SSE,165,1.0,5.0,84,0.00,,,0.00,VWS V14.00,2013-01-31 01:27:00,
2013-01-30 20:32:00,71.4,66.3,29.95,SSE,167,0.0,2.0,84,0.00,,,0.00,VWS V14.00,2013-01-31 01:32:00,
2013-01-30 20:37:00,71.4,66.3,29.95,South,176,2.0,7.0,84,0.00,,,0.00,VWS V14.00,2013-01-31 01:37:00,
2013-01-30 20:42:00,71.4,66.3,29.95,South,176,0.0,7.0,84,0.00,,,0.00,VWS V14.00,2013-01-31 01:42:00,
2013-01-30 20:47:00,71.3,66.2,29.95,South,176,2.0,4.0,84,0.00,,,0.00,VWS V14.00,2013-01-31 01:47:00,
2013-01-30 20:52:00,71.3,66.2,29.95,South,177,1.0,7.0,84,0.00,,,0.00,VWS V14.00,2013-01-31 01:52:00,
2013-01-30 20:57:00,71.1,66.4,29.95,South,177,0.0,7.0,85,0.00,,,0.00,VWS V14.00,2013-01-31 01:57:00,
2013-01-30 21:02:00,71.0,66.3,29.95,South,177,0.0,1.0,85,0.00,,,0.00,VWS V14.00,2013-01-31 02:02:00,
2013-01-30 21:07:00,70.9,66.2,29.95,South,177,4.0,4.0,85,0.00,,,0.00,VWS V14.00,2013-01-31 02:07:00,
2013-01-30 21:12:00,70.8,66.4,29.95,South,177,0.0,4.0,86,0.00,,,0.00,VWS V14.00,2013-01-31 02:12:00,
2013-01-30 21:17:00,70.7,66.3,29.94,South,191,2.0,8.0,86,0.00,,,0.00,VWS V14.00,2013-01-31 02:17:00,
2013-01-30 21:22:00,70.6,66.2,29.93,South,180,3.0,8.0,86,0.00,,,0.00,VWS V14.00,2013-01-31 02:22:00,
2013-01-30 21:27:00,70.6,66.2,29.93,South,180,0.0,8.0,86,0.00,,,0.00,VWS V14.00,2013-01-31 02:27:00,
2013-01-30 21:32:00,70.6,66.6,29.93,SSE,166,4.0,4.0,87,0.00,,,0.00,VWS V14.00,2013-01-31 02:32:00,
2013-01-30 21:37:00,70.6,66.6,29.93,SSE,166,4.0,5.0,87,0.00,,,0.00,VWS V14.00,2013-01-31 02:37:00,
2013-01-30 21:42:00,70.6,66.6,29.94,South,188,2.0,7.0,87,0.00,,,0.00,VWS V14.00,2013-01-31 02:42:00,
2013-01-30 21:47:00,70.6,66.6,29.94,South,173,2.0,7.0,87,0.00,,,0.00,VWS V14.00,2013-01-31 02:47:00,
2013-01-30 21:52:00,70.6,66.9,29.94,South,173,4.0,7.0,88,0.00,,,0.00,VWS V14.00,2013-01-31 02:52:00,
2013-01-30 21:57:00,70.6,66.9,29.94,South,170,1.0,7.0,88,0.00,,,0.00,VWS V14.00,2013-01-31 02:57:00,
2013-01-30 22:02:00,70.6,66.9,29.94,South,171,2.0,5.0,88,0.00,,,0.00,VWS V14.00,2013-01-31 03:02:00,
2013-01-30 22:07:00,70.5,66.8,29.94,SSE,152,0.0,6.0,88,0.00,,,0.00,VWS V14.00,2013-01-31 03:07:00,
2013-01-30 22:12:00,70.5,66.8,29.94,SSE,153,4.0,6.0,88,0.00,,,0.00,VWS V14.00,2013-01-31 03:12:00,
2013-01-30 22:17:00,70.5,66.8,29.93,South,172,0.0,5.0,88,0.00,,,0.00,VWS V14.00,2013-01-31 03:17:00,
2013-01-30 22:22:00,70.6,66.9,29.94,South,178,1.0,9.0,88,0.00,,,0.00,VWS V14.00,2013-01-31 03:22:00,
2013-01-30 22:27:00,70.5,66.8,29.94,SSE,165,0.0,9.0,88,0.00,,,0.00,VWS V14.00,2013-01-31 03:27:00,
2013-01-30 22:32:00,70.4,66.7,29.94,SSE,162,2.0,2.0,88,0.00,,,0.00,VWS V14.00,2013-01-31 03:32:00,
2013-01-30 22:37:00,70.4,66.7,29.94,SSE,165,0.0,5.0,88,0.00,,,0.00,VWS V14.00,2013-01-31 03:37:00,
2013-01-30 22:42:00,70.3,66.9,29.94,SSE,165,1.0,5.0,89,0.00,,,0.00,VWS V14.00,2013-01-31 03:42:00,
2013-01-30 22:47:00,70.3,66.9,29.94,South,169,0.0,2.0,89,0.00,,,0.00,VWS V14.00,2013-01-31 03:47:00,
2013-01-30 22:52:00,70.3,66.9,29.94,South,169,0.0,4.0,89,0.00,,,0.00,VWS V14.00,2013-01-31 03:52:00,
2013-01-30 22:57:00,70.2,66.8,29.94,South,169,0.0,4.0,89,0.00,,,0.00,VWS V14.00,2013-01-31 03:57:00,
2013-01-30 23:02:00,70.1,66.7,29.94,South,169,4.0,4.0,89,0.00,,,0.00,VWS V14.00,2013-01-31 04:02:00,
2013-01-30 23:07:00,70.1,66.7,29.94,South,172,0.0,6.0,89,0.00,,,0.00,VWS V14.00,2013-01-31 04:07:00,
2013-01-30 23:12:00,70.1,66.7,29.94,South,172,0.0,6.0,89,0.00,,,0.00,VWS V14.00,2013-01-31 04:12:00,
2013-01-30 23:17:00,70.0,66.6,29.94,South,172,0.0,2.0,89,0.00,,,0.00,VWS V14.00,2013-01-31 04:17:00,
2013-01-30 23:22:00,69.9,66.5,29.94,South,172,1.0,2.0,89,0.00,,,0.00,VWS V14.00,2013-01-31 04:22:00,
2013-01-30 23:27:00,69.9,66.8,29.94,South,172,0.0,4.0,90,0.00,,,0.00,VWS V14.00,2013-01-31 04:27:00,
2013-01-30 23:32:00,69.8,66.7,29.94,South,172,4.0,4.0,90,0.00,,,0.00,VWS V14.00,2013-01-31 04:32:00,
2013-01-30 23:37:00,69.7,66.6,29.94,South,172,0.0,4.0,90,0.00,,,0.00,VWS V14.00,2013-01-31 04:37:00,
2013-01-30 23:42:00,69.7,66.6,29.94,South,172,0.0,4.0,90,0.00,,,0.00,VWS V14.00,2013-01-31 04:42:00,
2013-01-30 23:47:00,69.7,66.6,29.94,South,172,0.0,0.0,90,0.00,,,0.00,VWS V14.00,2013-01-31 04:47:00,
2013-01-30 23:52:00,69.7,66.6,29.94,South,172,0.0,0.0,90,0.00,,,0.00,VWS V14.00,2013-01-31 04:52:00,
2013-01-30 23:57:00,69.7,66.6,29.93,South,172,0.0,0.0,90,0.00,,,0.00,VWS V14.00,2013-01-31 04:57:00,